739  
ASUS43 KTOP 221108  
RWRKS  
 
WEATHER ROUNDUP FOR KANSAS  
NATIONAL WEATHER SERVICE GOODLAND KS  
600 AM CDT SUN OCT 22 2017  
 
NOTE: "FAIR" INDICATES FEW OR NO CLOUDS BELOW 12,000 FEET WITH NO  
SIGNIFICANT WEATHER AND/OR S TO VISIBILITY
.  
 
KSZ001>006-013>018-027>032-041>047-221200-  
NORTHWEST KANSAS  
 
CITY SKY/WX TMP DP RH WIND PRES REMARKS
 
GOODLAND CLEAR 31 21 66 W6 30.17R  
HAYS CLEAR 35 27 72 NW10 30.17R WCI 27  
HILL CITY CLEAR 35 26 69 W5 30.16R  
RUSSELL CLEAR 35 35 100 W8 30.15R  

 
 
KSZ061>065-074>080-084>089-221200-  
SOUTHWEST KANSAS  
 
CITY SKY/WX TMP DP RH WIND PRES REMARKS
 
DODGE CITY CLEAR 39 25 57 NW9 30.20R  
ELKHART N/A 36 18 48 W7 N/A  
GARDEN CITY CLEAR 30 22 72 NW7 30.21R  
GREAT BEND CLEAR 35 32 88 W5 30.18R  
LIBERAL CLEAR 31 24 75 NW8 30.23R  
PRATT CLEAR 37 33 85 NW7 30.19R  

 
 
KSZ066>073-081>083-090>101-221200-  
SOUTHEAST KANSAS  
 
CITY SKY/WX TMP DP RH WIND PRES REMARKS
 
CHANUTE CLOUDY 51 48 89 NW8 30.07R  
COFFEYVILLE CLOUDY 52 51 97 NW10 30.06S  
HUTCHINSON CLEAR 43 40 89 NW9 30.16R  
MEDICINE LODGE N/A 38 35 89 NW3 30.17R  
NEWTON CLEAR 43 40 89 NW6 30.14R  
PARSONS CLOUDY 52 50 93 NW7 30.08R  
WICHITA INTL CLEAR 44 41 89 NW8 30.13R  
WICHITA JABRA CLEAR 46 42 86 W10 30.13R  
WICHITA MCCONL CLEAR 46 41 83 NW8 30.13R  
WINFIELD PTCLDY 46 45 96 NW6 30.13R  

 
 
KSZ007>012-019>026-033>040-048>060-102>105-221200-  
NORTHEAST KANSAS  
 
CITY SKY/WX TMP DP RH WIND PRES REMARKS
 
CONCORDIA CLEAR 42 38 85 W7 30.14R  
EMPORIA PTCLDY 46 43 89 W3 30.11R  
LAWRENCE CLOUDY 49 49 100 NW3 30.08R  
MANHATTAN PTCLDY 43 40 89 CALM 30.13R  
MARYSVILLE CLOUDY 45 39 81 W3 30.11R  
OLATHE IND CLOUDY 49 47 93 NW8 30.07R  
OLATHE EXE CLOUDY 48 47 96 NW7 30.06R  
SALINA CLEAR 44 39 82 CALM 30.15R  
TOPEKA BILLARD CLOUDY 49 47 93 W6 30.09R  
TOPEKA FORBES CLOUDY 47 45 93 NW7 30.09R  

 
 
 
CLICK HERE TO GO TO PREVIOUS BULLETINS.

The Nexlab KS Page Main Text Page